Inuvik Mike Zubko Airport
CYEV : now visible

Airfield :











YOU CAN JOIN US ON...

 
LOGIN :

Register | Disclaimer

   EN    FR    IT 

 









Legend :    VFR   Marginal VFR   IFR   Intensive IFR   Very Intensive IFR
Visi :
Ceiling :
>= 8 km
>= 3000ft
5 to 8 km
1000 to 3000 ft
1500m to 5 km
500 to 1000 ft
800 to 1500m
200 to 500 ft
< 800m
< 200 ft
Symbols :   Thunderstorms  Fog  Heavy snow  Heavy precipitations  Wind > 20 kt






- Airport Elevation : 224 ft
- IATA code : YEV


CYEV - Inuvik Mike Zubko

CURRENT METAR :
  • 312100Z 00000KT 15SM FEW140 BKN260 M16/M19 A2989 RMK AS1CS6 AS TR HALO SLP131

EXPIRED METARs :
  • 312000Z 00000KT 15SM FEW140 BKN260 M17/M19 A2989 RMK AS1CS5 HALO SLP131
  • 311900Z 00000KT 15SM FEW130 BKN260 M17/M20 A2988 RMK AS2CS5 HALO SLP129

TAF TAF CYEV
Valid from the 31 at 19:00 until the 01 at 07:00 UTC


311838Z 3119/0107 VRB03KT P6SM SCT120 BKN250
FM010300 VRB03KT P6SM FEW010 OVC040
TEMPO 0103/0107 3SM -SN OVC010 RMK NXT FCST BY 010100Z
CZEG FIR / North America



MET'MAP, your aeronautical weather chart ! - Copyright ORBIFLY December 2007 - Disclaimer

ORBIFLY MET'MAP TEAM :

Programming & Development : Alexandra Zaïnal
Concept & original design : Baudouin d'Aumeries
Assistance for programming : Marc-Olivier Méhu
Technical & hardware support : Manuel Goepfert

Contact : metmap@orbifly.com




SOURCES & CREDITS :

   NOAA       Earth
Advisory